{"data":{"norad_id":53248,"intl_designator":"2022-086G","name":"STARLINK-4135","alt_names":[],"object_type":"PAYLOAD","status":"ACTIVE","operator":null,"country":"US","launch_date":"2022-07-24","launch_site_code":"AFETR","launch_vehicle":null,"mission":null,"orbit_class":"UNKNOWN","rcs_meters":null,"size_class":null,"mass_kg":null,"dimensions":null,"purposes":["comms"],"wikipedia_slug":null,"has_3d_model":false,"image_url":null,"decayed_at":null,"tle_current":{"epoch":"2026-05-25T05:09:03.068640Z","epoch_age_seconds":49787,"freshness":"FRESH","line1":"1 53248U 22086G   26145.21461885 -.00003068  00000+0 -17471-3 0  9994","line2":"2 53248  53.2142 215.6919 0001527  85.1142 275.0025 15.08851211212862","mean_motion":15.08851211,"eccentricity":0.0001527,"inclination_deg":53.2142,"raan_deg":215.6919,"arg_perigee_deg":85.1142,"mean_anomaly_deg":275.0025,"bstar":-0.00017471,"rev_number":21286,"period_min":95.436845561839,"perigee_km":538.65276653154,"apogee_km":540.76547673708,"semimajor_km":6917.8461216343,"source":"CELESTRAK","updated_at":"2026-05-25T13:38:17.360951Z"}}}